User: anonymous   Login
Location: Newark
(55.2831°N, 38.7366°E)
Time: 09:03:39
(UTC+00:00)
Language:

CAS-4B - Orbit

View from above orbital plane
View from above orbital plane
View from above satellite
View from above satellite

Ground track
Ground track

The orbit data is extracted from the following two-line orbital elements,

1 42759U 17034B   19259.06992378 -.00000007  00000-0  13119-4 0  9999
2 42759  43.0182  99.8785 0010032  93.4336  48.7093 15.09630229124349
Epoch (UTC): 16 September 2019 01:40:41
Eccentricity: 0.0010032
inclination: 43.0182°
perigee height: 530 km
apogee height: 544 km
right ascension of ascending node: 99.8785°
argument of perigee: 93.4336°
revolutions per day: 15.09630229
mean anomaly at epoch: 48.7093°
orbit number at epoch: 12434

The dashed part of the orbit path shows where the satellite is in the earth's shadow,  

DLR